Simultaneous Nadir Overpasses (SNOs) Predictions

Prediction of SNOs between NOAA-21 and METOP-B Satellite Orbit:

Table of predicted SNOs for the next 14.0 days since TLE Epoch: 11/26/2023
Index Date (NOAA-21) Time (NOAA-21) Lat,Lon (NOAA-21) SZA (NOAA-21 ) Date (METOP-B) Time (METOP-B) Lat,Lon (METOP-B) SZA (METOP-B ) Distance(km) Time Diff (sec)
1 12/03/2023 09:17:23 73.57, 30.28 95.70 12/03/2023 09:18:30 73.53, 32.99 95.58 85.54 67
2 12/03/2023 10:08:06 -73.51,-162.26 84.36 12/03/2023 10:09:14 -73.42,-159.93 84.53 74.50 68
3 12/03/2023 10:58:47 73.27, 5.58 95.40 12/03/2023 10:59:57 73.25, 7.03 95.32 46.57 70
4 12/03/2023 11:49:30 -73.21, 173.03 84.67 12/03/2023 11:50:41 -73.14, 174.12 84.78 35.94 71
5 12/03/2023 12:40:11 72.98, -19.15 95.09 12/03/2023 12:41:25 72.92, -19.02 95.02 7.35 74
6 12/03/2023 13:30:54 -72.92, 148.30 84.98 12/03/2023 13:32:07 -72.92, 148.29 84.99 0.19 73
7 12/03/2023 14:21:39 72.88, -44.31 95.00 12/03/2023 14:22:47 72.89, -44.42 95.01 3.80 68
8 12/03/2023 15:12:24 -72.92, 122.92 84.96 12/03/2023 15:13:29 -72.89, 122.90 85.00 3.48 65
9 12/03/2023 16:03:10 72.93, -69.80 95.06 12/03/2023 16:04:08 72.92, -69.71 95.04 3.54 58
10 12/03/2023 16:53:54 -72.92, 97.53 84.95 12/03/2023 16:54:50 -72.91, 97.61 84.97 2.61 56
11 12/03/2023 17:44:39 72.89, -95.08 95.02 12/03/2023 17:45:30 72.89, -95.10 95.02 1.00 51
12 12/03/2023 18:35:23 -72.88, 72.26 84.99 12/03/2023 18:36:12 -72.88, 72.21 84.98 1.91 49
13 12/03/2023 19:26:09 72.89,-120.46 95.04 12/03/2023 19:26:52 72.86,-120.50 95.01 3.26 43
14 12/03/2023 20:16:53 -72.88, 46.88 84.97 12/03/2023 20:17:34 -72.86, 46.81 85.00 3.22 41
15 12/03/2023 21:07:39 72.89,-145.84 95.05 12/03/2023 21:08:13 72.89,-145.79 95.04 1.80 34
16 12/03/2023 21:58:23 -72.88, 21.50 84.96 12/03/2023 21:58:55 -72.88, 21.52 84.97 0.90 32
17 12/03/2023 22:49:08 72.85,-171.12 95.01 12/03/2023 22:49:35 72.86,-171.19 95.02 2.74 27
18 12/03/2023 23:39:52 -72.84, -3.78 85.00 12/03/2023 23:40:17 -72.85, -3.87 84.98 3.65 25
19 12/04/2023 00:30:37 72.85, 163.50 95.02 12/04/2023 00:30:56 72.83, 163.41 95.01 3.47 19
20 12/04/2023 01:21:22 -72.89, -29.27 84.93 12/04/2023 01:21:37 -72.88, -29.17 84.95 3.69 15
21 12/04/2023 02:12:07 72.85, 138.12 95.04 12/04/2023 02:12:17 72.86, 138.12 95.04 0.24 10
22 12/04/2023 03:02:51 -72.84, -54.54 84.97 12/04/2023 03:02:59 -72.85, -54.56 84.97 0.91 8
23 12/04/2023 03:53:37 72.86, 112.74 95.05 12/04/2023 03:53:39 72.83, 112.73 95.02 3.31 2
24 12/04/2023 04:44:21 -72.85, -79.93 84.96 12/04/2023 04:44:21 -72.82, -79.96 84.98 2.90 0
25 12/04/2023 05:35:07 72.86, 87.35 95.07 12/04/2023 05:35:00 72.85, 87.44 95.05 2.92 7
26 12/04/2023 06:25:51 -72.85,-105.31 84.95 12/04/2023 06:25:42 -72.85,-105.25 84.95 2.03 9
27 12/04/2023 07:16:36 72.81, 62.08 95.03 12/04/2023 07:16:22 72.82, 62.04 95.04 1.65 14
28 12/04/2023 08:07:20 -72.80,-130.59 84.99 12/04/2023 08:07:04 -72.82,-130.65 84.97 2.58 16
29 12/04/2023 08:58:06 72.82, 36.70 95.04 12/04/2023 08:57:44 72.80, 36.64 95.02 2.98 22
30 12/04/2023 09:48:50 -72.81,-155.97 84.97 12/04/2023 09:48:26 -72.79,-156.04 84.98 3.04 24
31 12/04/2023 10:39:36 72.82, 11.31 95.05 12/04/2023 10:39:05 72.82, 11.35 95.05 1.28 31
32 12/04/2023 11:30:20 -72.81, 178.65 84.96 12/04/2023 11:29:47 -72.81, 178.67 84.95 0.66 33
33 12/04/2023 12:21:05 72.77, -13.96 95.01 12/04/2023 12:20:27 72.79, -14.05 95.04 3.31 38
34 12/04/2023 13:11:50 -72.81, 153.27 84.95 12/04/2023 13:11:09 -72.79, 153.27 84.97 3.07 41
35 12/04/2023 14:02:35 72.78, -39.35 95.03 12/04/2023 14:01:49 72.76, -39.44 95.02 3.53 46
36 12/04/2023 14:53:20 -72.82, 127.89 84.93 12/04/2023 14:52:30 -72.81, 127.98 84.94 3.18 50
37 12/04/2023 15:44:05 72.78, -64.73 95.04 12/04/2023 15:43:10 72.79, -64.73 95.05 0.64 55
38 12/04/2023 16:34:49 -72.77, 102.61 84.97 12/04/2023 16:33:52 -72.78, 102.58 84.95 1.54 57
39 12/04/2023 17:25:35 72.79, -90.11 95.05 12/04/2023 17:24:32 72.76, -90.13 95.04 2.94 63
40 12/04/2023 18:16:19 -72.78, 77.23 84.96 12/04/2023 18:15:14 -72.76, 77.19 84.97 2.58 65
41 12/04/2023 19:07:05 72.79,-115.49 95.07 12/04/2023 19:05:53 72.78,-115.42 95.07 2.45 72
42 12/04/2023 19:57:49 -72.78, 51.84 84.94 12/04/2023 19:56:35 -72.78, 51.89 84.94 1.64 74
43 12/04/2023 20:48:31 72.59,-140.46 94.87 12/04/2023 20:47:18 72.60,-141.13 94.91 22.44 73
44 12/04/2023 21:39:14 -72.53, 26.98 85.20 12/04/2023 21:38:01 -72.55, 26.09 85.14 29.97 73
45 12/04/2023 22:29:55 72.29,-165.23 94.56 12/04/2023 22:28:46 72.27,-167.13 94.61 64.53 69
46 12/04/2023 23:20:38 -72.23, 2.21 85.51 12/04/2023 23:19:29 -72.21, 0.09 85.44 71.84 69



Historial Predications of SNOs between NOAA-21 and METOP-B
